Regional Weather Roundup
Issued by NWS

Home | Current Version | Previous Version | Graphics & Text | Print | Product List | Glossary On
Versions: 1 2 3 4 5 6 7 8 9 10 11 12 13 14 15 16 17 18 19 20 21 22 23 24 25 26 27 28 29 30 31 32 33 34 35 36 37 38 39 40 41 42 43 44 45 46 47 48 49 50
000
ASUS43 KLMK 262310
RWRKY
KENTUCKY REGIONAL WEATHER ROUNDUP
NATIONAL WEATHER SERVICE LOUISVILLE KY
700 PM EDT THU MAY 26 2016

NOTE "FAIR" INDICATES FEW OR NO CLOUDS BELOW 12,000 FEET
WITH NO SIGNIFICANT WEATHER AND/OR OBSTRUCTIONS TO VISIBILITY.

KYZ001>023-026-027-061>063-070>075-270000-
WESTERN AND SOUTH CENTRAL KENTUCKY

CITY           SKY/WX    TMP DP  RH WIND       PRES   REMARKS
PADUCAH        CLOUDY    69  65  86 SE9G21    29.91F
HENDERSON      CLOUDY    70  63  78 S17       29.91F
OWENSBORO      LGT RAIN  70  67  90 S22G31    29.96F
HOPKINSVILLE   TSTM      68  66  94 E7        30.06F
BOWLING GREEN  LGT RAIN  68  66  93 SE5       30.06F
GLASGOW        RAIN      65  65 100 S3        30.08S
$$

KYZ024-025-028>034-038-045-046-053-270000-
NORTH CENTRAL KENTUCKY

CITY           SKY/WX    TMP DP  RH WIND       PRES   REMARKS
LOUISVILLE/SDF CLOUDY    71  63  75 SE7       29.99F
LOUISVILLE/LOU CLOUDY    70  64  81 S3        30.00F
FORT KNOX      CLOUDY    68  64  87 E2        29.99F
$$

KYZ035>037-039>044-047>052-055>060-089>105-270000-
NORTHEAST KENTUCKY

CITY           SKY/WX    TMP DP  RH WIND       PRES   REMARKS
LEXINGTON      LGT RAIN  67  65  93 S14       30.04F
COVINGTON      CLOUDY    70  66  87 S10       30.00F
FRANKFORT      PTSUNNY   68  64  87 S3        30.02S
$$

KYZ054-064>069-076>088-106>120-270000-
SOUTHEAST KENTUCKY

CITY           SKY/WX    TMP DP  RH WIND       PRES   REMARKS
JACKSON        MOSUNNY   75  62  64 CALM      30.09S
LONDON         CLOUDY    69  61  75 NE5       30.12F
SOMERSET       DRIZZLE   64  64 100 CALM      30.12F
MIDDLESBORO    MOSUNNY   78  65  64 CALM      30.12R
MONTICELLO     LGT RAIN  66  64  93 NE8       30.14S
$$




USA.gov is the U.S. government's official web portal to all federal, state and local government web resources and services.